Flag for Austria Weather past 2 weeks in Tulln an der Donau, Lower Austria, Austria

46 °F

Partly cloudy.

Feels Like: 39 °F
Forecast: 47 / 51 °F
Wind: 20 mph from Southwest

Location: Tulln Airport

Current Time: Nov 30, 2015 at 12:09:42 AM

Latest Report: Nov 29, 2015 at 9:50 PM

Visibility: 12 mi

Pressure: 30.04 "Hg

Humidity: 82%

Dew point: 41 °F

Location of Tulln an der DonauLocation

Historic Weather in Tulln an der Donau — Graph


Tulln an der Donau temperature yesterday

Maximum temperature yesterday: 46 °F (at 10:50 AM)
Minimum temperature yesterday: 36 °F (at 4:50 AM)
Average temperature yesterday: 43 °F

Past Weeks' High & Low Weather Summary

High66 °F (Nov 18, 11:50 AM)100% (Nov 20, 1:50 PM)30.33 "Hg (Nov 20, 1:50 PM)
Low23 °F (Nov 25, 4:50 AM)43% (Nov 18, 11:50 AM)29.42 "Hg (Nov 20, 7:50 PM)
Average44 °F77%29.94 "Hg
* Reported Nov 14 9:50 PM — Nov 29 9:50 PM, Tulln an der Donau, Weather by CustomWeather, © 2015

Note: Actual official high and low records may vary slightly from our data, if they occured in-between our weather recording intervals... More about our weather records


Tulln an der Donau weather history for previous 24 hours

Time TempWeatherWind HumidityBarometerVisibility
9:50 PM
Sun, Nov 29
46 °FPartly cloudy.20 mph82%30.04 "Hg12 mi
8:50 PM46 °FLight rain. Partly cloudy.20 mph82%30.04 "Hg12 mi
7:50 PM45 °FPartly cloudy.16 mph81%30.07 "Hg19 mi
6:50 PM45 °FPartly cloudy.20 mph81%30.07 "Hg19 mi
5:50 PM45 °FLight rain. Partly cloudy.22 mph81%30.07 "Hg22 mi
4:50 PM45 °FPartly cloudy.21 mph76%30.07 "Hg25 mi
3:50 PM45 °FPartly sunny.21 mph76%30.04 "Hg37 mi
2:50 PM45 °FBroken clouds.22 mph71%30.07 "Hg37 mi
1:50 PM46 °FBroken clouds.21 mph66%30.07 "Hg37 mi
12:50 PM46 °FBroken clouds.22 mph57%30.04 "Hg37 mi
11:50 AM46 °FPartly sunny.22 mph53%30.07 "Hg37 mi
10:50 AM46 °FPartly sunny.16 mph53%30.07 "Hg37 mi
9:50 AM43 °FScattered clouds.17 mph61%30.09 "Hg37 mi
8:50 AM39 °FScattered clouds.17 mph70%30.09 "Hg37 mi
7:50 AM36 °FScattered clouds.8 mph81%30.12 "Hg37 mi
6:50 AM36 °FPassing clouds.15 mph81%30.12 "Hg25 mi
5:50 AM37 °FPassing clouds.15 mph81%30.12 "Hg16 mi
4:50 AM36 °FPassing clouds.8 mph81%30.12 "Hg9 mi
Weather by CustomWeather, © 2015

See weather overviewHow to use our weather pages